CDT,Max TemperatureF,Mean TemperatureF,Min TemperatureF,Max Dew PointF,MeanDew PointF,Min DewpointF,Max Humidity, Mean Humidity, Min Humidity, Max Sea Level PressureIn, Mean Sea Level PressureIn, Min Sea Level PressureIn, Max VisibilityMiles, Mean VisibilityMiles, Min VisibilityMiles, Max Wind SpeedMPH, Mean Wind SpeedMPH, Max Gust SpeedMPH,PrecipitationIn, CloudCover, Events, WindDirDegrees
2012-10-1,69,56,42,46,38,28,63,45,25,29.99,29.95,29.86,10,10,7,24,12,33,0.00,1,Rain,326
2012-10-2,73,53,33,36,30,27,81,44,19,29.99,29.90,29.81,10,9,2,15,4,21,0.00,0,,183
2012-10-3,78,60,41,34,31,28,65,35,17,29.87,29.82,29.72,10,10,7,20,8,25,0.00,0,,148
2012-10-4,66,52,39,41,33,30,76,63,30,30.21,30.03,29.72,10,10,5,34,23,44,0.00,7,,289
2012-10-5,46,39,32,32,26,23,81,62,46,30.22,30.19,30.16,10,10,10,24,17,34,0.00,4,,300
2012-10-6,42,35,28,32,25,19,87,67,42,30.31,30.26,30.21,10,10,7,18,12,26,0.00,5,,316
2012-10-7,57,39,21,25,19,16,86,52,23,30.24,30.04,29.83,10,10,10,18,7,25,0.00,0,,216
2012-10-8,66,50,33,37,29,18,66,47,30,29.82,29.70,29.57,10,10,7,26,9,32,0.00,4,Rain,220
2012-10-9,50,41,32,36,30,23,76,59,43,30.02,29.85,29.72,10,10,10,28,11,36,0.00,6,Rain,288
2012-10-10,55,40,26,32,25,21,87,54,28,30.10,30.00,29.79,10,10,10,18,8,26,0.00,3,,246
2012-10-11,53,42,30,34,26,18,70,53,32,30.40,30.13,29.77,10,10,10,20,13,25,0.00,1,,336
2012-10-12,53,37,21,23,18,14,80,47,22,30.42,30.26,29.93,10,10,10,20,7,28,0.00,2,,153
2012-10-13,59,50,41,50,43,23,93,73,33,29.92,29.75,29.66,10,8,0,22,10,26,0.00,6,Fog,169
2012-10-14,59,48,37,41,37,32,100,72,44,29.92,29.83,29.74,10,7,0,20,8,26,0.00,4,Fog,323
2012-10-15,68,49,30,39,34,27,93,59,30,29.95,29.85,29.66,10,10,5,16,5,21,0.00,0,,181
2012-10-16,73,62,51,45,42,39,67,52,33,29.65,29.48,29.34,10,9,0,14,7,21,0.00,0,,137
2012-10-17,59,50,42,48,43,39,93,73,55,29.33,29.24,29.08,10,9,2,31,13,38,0.05,4,Rain,246
2012-10-18,50,46,41,46,42,37,93,89,81,29.39,29.26,29.16,10,4,1,22,15,31,0.24,8,Rain,308
2012-10-19,50,46,42,46,42,41,93,92,87,29.75,29.62,29.39,10,7,2,21,14,32,0.11,8,Rain,319
2012-10-20,51,46,41,45,41,37,93,84,71,29.80,29.75,29.72,10,8,3,14,6,17,0.00,6,,182
2012-10-21,62,52,42,46,43,37,93,80,55,29.91,29.78,29.71,10,10,7,14,10,20,0.00,0,,161
2012-10-22,59,50,42,48,44,39,93,77,63,29.95,29.89,29.82,10,10,5,18,10,29,0.00,4,,41
2012-10-23,60,56,53,59,54,46,94,88,77,29.81,29.72,29.65,10,4,0,15,8,18,0.38,8,Fog-Rain-Thunderstorm,147
2012-10-24,57,50,42,54,45,37,94,83,71,29.88,29.84,29.79,10,9,4,23,10,24,0.01,8,Rain,329
2012-10-25,42,38,33,37,32,28,93,85,75,30.18,29.96,29.78,10,8,2,24,18,31,0.22,8,Rain-Snow-Thunderstorm,315
2012-10-26,39,36,32,30,28,25,87,76,60,30.38,30.32,30.20,10,10,10,17,12,23,0.00,7,,278
2012-10-27,41,34,28,30,27,23,87,75,49,30.35,30.31,30.26,10,10,7,8,6,,0.00,3,,210
2012-10-28,46,38,30,32,30,27,87,74,57,30.29,30.25,30.20,10,10,10,14,7,20,0.00,6,,150
2012-10-29,50,42,33,32,29,27,81,67,47,30.24,30.21,30.18,10,10,10,20,11,25,0.00,3,,133
2012-10-30,48,40,33,32,29,25,87,68,50,30.19,30.14,30.06,10,10,10,13,7,16,0.00,5,,79
2012-10-31,53,43,33,32,30,23,87,64,38,30.08,30.00,29.93,10,10,2,6,1,,0.00,5,,253